Jasper, AL

11:00 AM CDT on August 25, 2019 (GMT -0500)
Walker County-Bevill

Weather History for KJFX - June, 2019

Change the Weather History Date:

Sunday, June 9, 2019

  Actual Average Record
Temperature  
Mean Temperature 80 °F -  
Max Temperature 93 °F 86 °F 98 °F (2011)
Min Temperature 68 °F 60 °F 49 °F (1977)
Cooling Degree Days 16    
Growing Degree Days 30 (Base 50)    
Moisture  
Dew Point 71 °F    
Average Humidity 83    
Maximum Humidity 100    
Minimum Humidity 49    
Precipitation  
Precipitation 0.00 in - - ()
Sea Level Pressure  
Sea Level Pressure 29.86 in    
Wind  
Wind Speed - (North)    
Max Wind Speed -    
Max Gust Speed -    
Visibility 8 miles    
Events Rain , Thunderstorm    
Averages and records for this station are not official NWS values.
T = Trace of Precipitation, MM = Missing Value Source: NWS Daily Summary

Daily Weather History Graph

Daily Weather History Graph

Search for Another Location

Airport or City:

Astronomy

Jun. 09, 2019 Rise Set
Actual Time 5:37 AM CDT 7:59 PM CDT
Civil Twilight 5:08 AM CDT 8:28 PM CDT
Nautical Twilight 4:33 AM CDT 9:03 PM CDT
Astronomical Twilight 3:54 AM CDT 9:42 PM CDT
Moon 12:06 PM CDT (6/9) 12:47 AM CDT (6/9)
Length of Visible Light 15h 19m
Length of Day
14h 21m
Waxing Crescent, 44% of the Moon is Illuminated
Jun 9
Waxing Crescent
Jun 10
First Quarter
Jun 17
Full
Jun 25
Last Quarter
Jul 2
New

Hourly Weather History & Observations

Time (CDT) Temp. Heat Index Dew Point Humidity Pressure Visibility Wind Dir Wind Speed Gust Speed Precip Events Conditions
12:15 AM 69.8 °F - 69.8 °F 100% 29.79 in 6.0 mi North - - N/A   Clear
12:35 AM 69.8 °F - 69.8 °F 100% 29.79 in 5.0 mi North - - N/A   Clear
12:55 AM 69.8 °F - 69.8 °F 100% 29.79 in 6.0 mi North - - N/A   Clear
1:15 AM 69.8 °F - 69.8 °F 100% 29.78 in 7.0 mi North - - N/A   Clear
1:35 AM 68.0 °F - 68.0 °F 100% 29.78 in 3.0 mi North - - N/A   Clear
1:55 AM 68.0 °F - 68.0 °F 100% 29.78 in 5.0 mi North - - N/A   Clear
2:15 AM 68.0 °F - 68.0 °F 100% 29.78 in 0.5 mi North - - N/A   Mostly Cloudy
2:55 AM 68.0 °F - 68.0 °F 100% 29.78 in 8.0 mi North - - N/A   Mostly Cloudy
3:15 AM 68.0 °F - 68.0 °F 100% 29.79 in 4.0 mi North - - N/A   Mostly Cloudy
3:35 AM 68.0 °F - 68.0 °F 100% 29.79 in 5.0 mi North - - N/A   Mostly Cloudy
3:55 AM 68.0 °F - 68.0 °F 100% 29.79 in 6.0 mi North - - N/A   Mostly Cloudy
4:15 AM 69.8 °F - 69.8 °F 100% 29.79 in 5.0 mi North - - N/A   Scattered Clouds
4:35 AM 69.8 °F - 69.8 °F 100% 29.80 in 4.0 mi North - - N/A   Clear
4:55 AM 69.8 °F - 69.8 °F 100% 29.80 in 6.0 mi North - - N/A   Mostly Cloudy
5:15 AM 69.8 °F - 69.8 °F 100% 29.80 in 4.0 mi North - - N/A   Overcast
5:35 AM 69.8 °F - 69.8 °F 100% 29.82 in 4.0 mi North - - N/A   Overcast
5:55 AM - - - N/A% 29.82 in 4.0 mi North - - N/A   Scattered Clouds
6:15 AM 69.8 °F - 69.8 °F 100% 29.83 in 2.5 mi North - - N/A   Partly Cloudy
6:35 AM 69.8 °F - 69.8 °F 100% 29.84 in 4.0 mi North - - N/A   Mostly Cloudy
6:55 AM 71.6 °F - 71.6 °F 100% 29.84 in 6.0 mi North - - N/A   Mostly Cloudy
7:15 AM 73.4 °F - 73.4 °F 100% 29.85 in 8.0 mi North - - N/A   Mostly Cloudy
7:35 AM 73.4 °F - 73.4 °F 100% 29.85 in 9.0 mi North - - N/A   Overcast
7:55 AM 75.2 °F - 75.2 °F 100% 29.86 in 8.0 mi North - - N/A   Overcast
8:15 AM 75.2 °F - 75.2 °F 100% 29.86 in 9.0 mi North - - N/A Rain Light Rain
8:35 AM 77.0 °F - 73.4 °F 89% 29.87 in 9.0 mi North - - N/A   Overcast
8:55 AM 80.6 °F 85.4 °F 73.4 °F 79% 29.87 in 10.0 mi North - - N/A   Overcast
9:15 AM 80.6 °F 85.4 °F 73.4 °F 79% 29.87 in 10.0 mi North - - N/A   Mostly Cloudy
9:35 AM 84.2 °F 89.6 °F 71.6 °F 66% 29.87 in 10.0 mi North - - N/A   Mostly Cloudy
9:55 AM 82.4 °F 87.2 °F 71.6 °F 70% 29.87 in 10.0 mi North - - N/A   Scattered Clouds
10:15 AM 87.8 °F 93.8 °F 71.6 °F 58% 29.87 in 10.0 mi North - - N/A   Scattered Clouds
10:35 AM 89.6 °F 96.2 °F 71.6 °F 55% 29.87 in 10.0 mi North - - N/A   Mostly Cloudy
10:55 AM 89.6 °F 96.2 °F 71.6 °F 55% 29.87 in 10.0 mi North - - N/A   Mostly Cloudy
11:15 AM 89.6 °F 96.2 °F 71.6 °F 55% 29.87 in 10.0 mi North - - N/A   Mostly Cloudy
11:35 AM 91.4 °F 100.1 °F 73.4 °F 55% 29.87 in 10.0 mi North - - N/A   Overcast
11:55 AM 86.0 °F 91.8 °F 71.6 °F 62% 29.86 in 10.0 mi North - - N/A   Overcast
12:15 PM 87.8 °F 93.8 °F 71.6 °F 58% 29.86 in 10.0 mi North - - N/A   Mostly Cloudy
12:35 PM 86.0 °F 91.8 °F 71.6 °F 62% 29.86 in 10.0 mi North - - N/A   Mostly Cloudy
12:55 PM 91.4 °F 98.4 °F 71.6 °F 52% 29.85 in 10.0 mi North - - N/A   Scattered Clouds
1:15 PM 93.2 °F 100.5 °F 71.6 °F 49% 29.85 in 10.0 mi North - - N/A   Scattered Clouds
1:35 PM 87.8 °F 93.8 °F 71.6 °F 58% 29.85 in 10.0 mi North - - N/A   Mostly Cloudy
1:55 PM 87.8 °F 93.8 °F 71.6 °F 58% 29.85 in 10.0 mi North - - N/A   Scattered Clouds
2:15 PM 87.8 °F 93.8 °F 71.6 °F 58% 29.85 in 10.0 mi North - - N/A   Clear
2:35 PM 87.8 °F 95.6 °F 73.4 °F 62% 29.85 in 10.0 mi North - - N/A   Partly Cloudy
2:55 PM 87.8 °F 93.8 °F 71.6 °F 58% 29.85 in 10.0 mi North - - N/A   Partly Cloudy
3:15 PM 82.4 °F 87.2 °F 71.6 °F 70% 29.86 in 10.0 mi North - - N/A   Clear
3:35 PM 82.4 °F 86.3 °F 69.8 °F 66% 29.86 in 10.0 mi North - - N/A   Clear
3:55 PM 82.4 °F 86.3 °F 69.8 °F 66% 29.86 in 10.0 mi North - - N/A   Clear
4:15 PM 80.6 °F 84.6 °F 71.6 °F 74% 29.86 in 10.0 mi North - - N/A   Clear
4:35 PM 80.6 °F 84.6 °F 71.6 °F 74% 29.87 in 10.0 mi North - - N/A   Partly Cloudy
4:55 PM 80.6 °F 84.6 °F 71.6 °F 74% 29.87 in 10.0 mi North - - N/A   Partly Cloudy
5:15 PM 78.8 °F - 71.6 °F 78% 29.88 in 10.0 mi North - - N/A   Clear
5:35 PM 80.6 °F 85.4 °F 73.4 °F 79% 29.88 in 10.0 mi North - - N/A   Clear
5:55 PM 78.8 °F - 71.6 °F 78% 29.88 in 10.0 mi North - - N/A   Partly Cloudy
6:15 PM 78.8 °F - 71.6 °F 78% 29.87 in 10.0 mi North - - N/A   Partly Cloudy
6:35 PM 78.8 °F - 73.4 °F 83% 29.88 in 10.0 mi North - - N/A Thunderstorm Clear
6:55 PM 78.8 °F - 73.4 °F 83% 29.89 in 10.0 mi North - - N/A   Clear
7:15 PM 77.0 °F - 71.6 °F 83% 29.91 in 9.0 mi North - - N/A   Partly Cloudy
7:35 PM 77.0 °F - 71.6 °F 83% 29.91 in 10.0 mi North - - N/A   Scattered Clouds
7:55 PM 77.0 °F - 71.6 °F 83% 29.90 in 10.0 mi North - - N/A   Scattered Clouds
8:15 PM 77.0 °F - 71.6 °F 83% 29.91 in 10.0 mi North - - N/A   Scattered Clouds
8:35 PM 75.2 °F - 73.4 °F 94% 29.91 in 10.0 mi North - - N/A   Partly Cloudy
8:55 PM 75.2 °F - 73.4 °F 94% 29.91 in 10.0 mi North - - N/A   Clear
9:15 PM 75.2 °F - 73.4 °F 94% 29.91 in 10.0 mi North - - N/A   Clear
9:35 PM 73.4 °F - 73.4 °F 100% 29.92 in 10.0 mi North - - N/A   Partly Cloudy
9:55 PM - - - N/A% 29.92 in 10.0 mi North - - N/A   Clear
10:15 PM 73.4 °F - 73.4 °F 100% 29.93 in 10.0 mi North - - N/A   Clear
10:35 PM - - - N/A% 29.92 in 10.0 mi North - - N/A   Clear
10:55 PM 73.4 °F - 73.4 °F 100% 29.92 in 10.0 mi North - - N/A   Clear
11:15 PM 71.6 °F - 71.6 °F 100% 29.91 in 10.0 mi North - - N/A   Clear
11:35 PM 71.6 °F - 71.6 °F 100% 29.92 in 9.0 mi North - - N/A   Clear
11:55 PM 69.8 °F - 69.8 °F 100% 29.92 in 8.0 mi North - - N/A   Clear